VK2HN Weather Reports


Display with metric or nautical units.
time (UTC)temp
F
wind
direction
speed
MPH
gust
MPH
rain 1hr
in
rain 24hr
in
rain mn
in
humidity
%
barometer
mb
20260510033442 74 99 1.0 4.0 0.00 0.00 0.00 61 1028.0
20260510032942 73 95 1.0 3.0 0.00 0.00 0.00 62 1028.0
20260510032442 73 94 2.0 4.0 0.00 0.00 0.00 61 1027.9
20260510031942 73 91 3.0 7.0 0.00 0.00 0.00 60 1028.0
20260510031442 73 114 3.0 7.0 0.00 0.00 0.00 59 1028.1
20260510030942 74 123 2.0 7.0 0.00 0.00 0.00 62 1028.3
20260510030442 74 140 2.0 5.0 0.00 0.00 0.00 61 1028.4
20260510025942 74 217 2.0 5.0 0.00 0.00 0.00 59 1028.6
20260510025442 74 197 2.0 9.0 0.00 0.00 0.00 60 1028.7
20260510024942 74 208 2.0 4.0 0.00 0.00 0.00 61 1028.6
20260510024442 73 206 2.0 6.0 0.00 0.00 0.00 60 1028.8
20260510023942 73 141 1.0 4.0 0.00 0.00 0.00 60 1028.8
20260510023442 72 151 1.0 4.0 0.00 0.00 0.00 63 1028.9
20260510022942 72 153 2.0 5.0 0.00 0.00 0.00 62 1028.9
20260510022442 72 215 2.0 2.0 0.00 0.00 0.00 60 1028.9
20260510021942 72 215 2.0 4.0 0.00 0.00 0.00 61 1029.0
20260510021442 72 219 2.0 5.0 0.00 0.00 0.00 60 1029.2
20260510020942 72 185 1.0 5.0 0.00 0.00 0.00 61 1029.1
20260510020442 71 179 1.0 4.0 0.00 0.00 0.00 64 1029.1
20260510015942 71 175 1.0 3.0 0.00 0.00 0.00 68 1029.3
20260510015442 70 178 1.0 3.0 0.00 0.00 0.00 65 1029.3
20260510014942 70 156 1.0 3.0 0.00 0.00 0.00 65 1029.3
20260510014442 69 156 2.0 3.0 0.00 0.00 0.00 68 1029.4
20260510013942 68 157 2.0 5.0 0.00 0.00 0.00 69 1029.4
20260510013442 68 131 2.0 6.0 0.00 0.00 0.00 69 1029.6
20260510012942 67 114 0.0 4.0 0.00 0.00 0.00 69 1029.7
20260510012442 66 108 1.0 2.0 0.00 0.00 0.00 74 1029.7
20260510011942 65 105 1.0 4.0 0.00 0.00 0.00 74 1029.8
20260510011442 64 106 0.0 4.0 0.00 0.00 0.00 75 1029.9
20260510010942 63 146 0.0 0.0 0.00 0.00 0.00 76 1029.9
20260510010442 63 146 1.0 0.0 0.00 0.00 0.00 76 1029.9
20260510005942 63 146 1.0 4.0 0.00 0.00 0.00 77 1030.0
20260510005442 62 179 0.0 2.0 0.00 0.00 0.00 79 1029.9
20260510004942 62 190 0.0 1.0 0.00 0.00 0.00 80 1030.1
20260510004442 61 190 0.0 1.0 0.00 0.00 0.00 80 1030.1
20260510003942 61 190 0.0 0.0 0.00 0.00 0.00 80 1030.2
20260510003442 60 190 0.0 0.0 0.00 0.00 0.00 82 1030.3
20260510002942 60 190 0.0 0.0 0.00 0.00 0.00 82 1030.3
20260510002442 60 190 0.0 0.0 0.00 0.00 0.00 83 1030.2
20260510001942 59 191 0.0 2.0 0.00 0.00 0.00 84 1030.2
20260510001442 59 243 0.0 0.0 0.00 0.00 0.00 86 1030.1
20260510000942 58 242 0.0 1.0 0.00 0.00 0.00 87 1030.1
20260510000442 58 242 0.0 3.0 0.00 0.00 0.00 89 1030.1
20260509235942 57 240 0.0 0.0 0.00 0.00 0.00 90 1030.0
20260509235442 57 240 0.0 0.0 0.00 0.00 0.00 91 1029.9
20260509234942 56 241 0.0 0.0 0.00 0.00 0.00 91 1030.0
20260509234442 56 242 0.0 1.0 0.00 0.00 0.00 92 1029.9
20260509233942 55 101 0.0 0.0 0.00 0.00 0.00 94 1030.0
20260509233442 55 101 0.0 0.0 0.00 0.00 0.00 95 1029.9
20260509232942 54 101 0.0 0.0 0.00 0.00 0.00 95 1029.9
20260509232442 54 101 0.0 0.0 0.00 0.00 0.00 96 1029.9
20260509231942 53 101 0.0 0.0 0.00 0.00 0.00 96 1029.9
20260509231442 53 101 0.0 0.0 0.00 0.00 0.00 97 1029.9
20260509230942 53 101 0.0 0.0 0.00 0.00 0.00 97 1029.9
20260509230442 52 101 0.0 0.0 0.00 0.00 0.00 97 1029.9
20260509225942 52 101 0.0 0.0 0.00 0.00 0.00 98 1029.9
20260509225442 52 101 0.0 0.0 0.00 0.00 0.00 98 1030.0
20260509224942 51 101 0.0 0.0 0.00 0.00 0.00 98 1029.9
20260509224442 51 101 0.0 0.0 0.00 0.00 0.00 99 1029.9
20260509223942 50 101 0.0 0.0 0.00 0.00 0.00 99 1029.9
20260509223442 49 101 0.0 0.0 0.00 0.00 0.00 99 1029.8
20260509222943 49 101 0.0 0.0 0.00 0.00 0.00 99 1029.8
20260509222442 48 101 0.0 0.0 0.00 0.00 0.00 99 1029.8
20260509221943 48 101 0.0 0.0 0.00 0.00 0.00 99 1029.7
20260509221443 47 101 0.0 0.0 0.00 0.00 0.00 99 1029.8
20260509220943 46 101 0.0 0.0 0.00 0.00 0.00 99 1029.7
20260509220443 46 101 0.0 0.0 0.00 0.00 0.00 99 1029.8
20260509215943 45 101 0.0 0.0 0.00 0.00 0.00 99 1029.6
20260509215443 44 101 0.0 0.0 0.00 0.00 0.00 99 1029.7
20260509214943 43 101 0.0 0.0 0.00 0.00 0.00 98 1029.7
20260509214443 42 101 0.0 0.0 0.00 0.00 0.00 98 1029.6
20260509213943 42 101 0.0 0.0 0.00 0.00 0.00 98 1029.6
20260509213443 42 101 0.0 0.0 0.00 0.00 0.00 98 1029.6
20260509212943 42 101 0.0 0.0 0.00 0.00 0.00 98 1029.6
20260509212443 41 101 0.0 0.0 0.00 0.00 0.00 98 1029.5
20260509211943 41 101 0.0 0.0 0.00 0.00 0.00 98 1029.5
20260509211443 41 101 0.0 0.0 0.00 0.00 0.00 98 1029.4
20260509210943 41 101 0.0 0.0 0.00 0.00 0.00 98 1029.3
20260509210443 41 101 0.0 0.0 0.00 0.00 0.00 98 1029.2
20260509205943 41 101 0.0 0.0 0.00 0.00 0.00 98 1029.3
20260509205443 41 101 0.0 0.0 0.00 0.00 0.00 98 1029.3
20260509204943 41 101 0.0 0.0 0.00 0.00 0.00 98 1029.1
20260509204443 41 101 0.0 0.0 0.00 0.00 0.00 98 1029.1
20260509203943 41 101 0.0 0.0 0.00 0.00 0.00 98 1028.9
20260509203443 41 101 0.0 0.0 0.00 0.00 0.00 98 1029.0
20260509202943 41 101 0.0 0.0 0.00 0.00 0.00 97 1028.9
20260509202443 41 101 0.0 0.0 0.00 0.00 0.00 97 1028.7
20260509201943 41 101 0.0 0.0 0.00 0.00 0.00 97 1028.8
20260509201443 41 101 0.0 0.0 0.00 0.00 0.00 97 1028.6
20260509200943 41 101 0.0 0.0 0.00 0.00 0.00 98 1028.6
20260509200443 41 101 0.0 0.0 0.00 0.00 0.00 98 1028.6
20260509195943 41 101 0.0 0.0 0.00 0.00 0.00 98 1028.5
20260509195443 41 101 0.0 0.0 0.00 0.00 0.00 98 1028.4
20260509194943 41 101 0.0 0.0 0.00 0.00 0.00 97 1028.4
20260509194443 41 101 0.0 0.0 0.00 0.00 0.00 97 1028.3
20260509193943 42 101 0.0 1.0 0.00 0.00 0.00 97 1028.2
20260509193443 42 101 0.0 2.0 0.00 0.00 0.00 97 1028.2
20260509192943 41 101 0.0 0.0 0.00 0.00 0.00 97 1028.1
20260509192443 41 101 0.0 0.0 0.00 0.00 0.00 97 1028.1
20260509191943 41 101 0.0 0.0 0.00 0.00 0.00 97 1028.0
20260509191443 41 101 0.0 0.0 0.00 0.00 0.00 97 1028.0
20260509190943 41 101 0.0 0.0 0.00 0.00 0.00 97 1028.0
20260509190443 42 101 0.0 0.0 0.00 0.00 0.00 97 1027.9
20260509185943 42 101 0.0 0.0 0.00 0.00 0.00 97 1027.9
20260509185443 42 101 0.0 0.0 0.00 0.00 0.00 97 1027.9
20260509184943 42 101 0.0 0.0 0.00 0.00 0.00 97 1027.8
20260509184443 42 101 0.0 0.0 0.00 0.00 0.00 97 1027.9
20260509183943 42 101 0.0 0.0 0.00 0.00 0.00 97 1027.8
20260509183443 42 101 0.0 0.0 0.00 0.00 0.00 97 1027.7
20260509182943 42 101 0.0 0.0 0.00 0.00 0.00 97 1027.7
20260509182443 42 101 0.0 0.0 0.00 0.00 0.00 97 1027.6
20260509181943 42 101 0.0 0.0 0.00 0.00 0.00 97 1027.6
20260509181443 42 101 0.0 0.0 0.00 0.00 0.00 97 1027.6
20260509180943 42 101 0.0 0.0 0.00 0.00 0.00 97 1027.5
20260509180443 42 101 0.0 0.0 0.00 0.00 0.00 97 1027.5
20260509175943 42 101 0.0 0.0 0.00 0.00 0.00 97 1027.5
20260509175443 42 101 0.0 0.0 0.00 0.00 0.00 97 1027.6
20260509174943 42 101 0.0 0.0 0.00 0.00 0.00 97 1027.4
20260509174443 42 101 0.0 0.0 0.00 0.00 0.00 97 1027.5
20260509173943 43 101 0.0 0.0 0.00 0.00 0.00 97 1027.3
20260509173443 43 101 0.0 0.0 0.00 0.00 0.00 97 1027.4
20260509172943 43 101 0.0 0.0 0.00 0.00 0.00 97 1027.4
20260509172443 43 101 0.0 0.0 0.00 0.00 0.00 97 1027.3
20260509171943 43 101 0.0 0.0 0.00 0.00 0.00 97 1027.3
20260509171443 43 101 0.0 0.0 0.00 0.00 0.00 97 1027.1
20260509170943 43 101 0.0 0.0 0.00 0.00 0.00 97 1027.1
20260509170443 43 101 0.0 0.0 0.00 0.00 0.00 97 1027.1
20260509165943 43 101 0.0 0.0 0.00 0.00 0.00 97 1026.9
20260509165443 43 101 0.0 0.0 0.00 0.00 0.00 97 1027.0
20260509164943 43 101 0.0 0.0 0.00 0.00 0.00 97 1027.0
20260509164443 43 101 0.0 0.0 0.00 0.00 0.00 97 1027.0
20260509163943 43 101 0.0 0.0 0.00 0.00 0.00 97 1026.9
20260509163443 43 101 0.0 0.0 0.00 0.00 0.00 97 1027.0
20260509162943 43 101 0.0 0.0 0.00 0.00 0.00 97 1027.0
20260509162443 43 101 0.0 0.0 0.00 0.00 0.00 97 1027.0
20260509161943 44 101 0.0 0.0 0.00 0.00 0.00 97 1026.9
20260509161443 44 101 0.0 0.0 0.00 0.00 0.00 97 1027.0
20260509160943 44 101 0.0 0.0 0.00 0.00 0.00 97 1027.0
20260509160443 44 101 0.0 0.0 0.00 0.00 0.00 97 1027.1
20260509155943 44 101 0.0 0.0 0.00 0.00 0.00 97 1026.9
20260509155443 44 101 0.0 0.0 0.00 0.00 0.00 96 1026.9
20260509155001 44 101 0.0 0.0 0.00 0.00 0.00 96 1027.0
20260509154443 44 101 0.0 0.0 0.00 0.00 0.00 96 1027.0
20260509153943 44 101 0.0 0.0 0.00 0.00 0.00 97 1027.0
20260509153443 44 101 0.0 0.0 0.00 0.00 0.00 96 1027.1
20260509152943 44 101 0.0 0.0 0.00 0.00 0.00 96 1027.1
20260509152443 44 101 0.0 0.0 0.00 0.00 0.00 96 1027.1
20260509151943 45 101 0.0 0.0 0.00 0.00 0.00 96 1027.1
20260509151443 45 101 0.0 0.0 0.00 0.00 0.00 96 1027.2
20260509150943 45 101 0.0 0.0 0.00 0.00 0.00 96 1027.1
20260509150443 45 101 0.0 0.0 0.00 0.00 0.00 96 1027.1
20260509145943 45 101 0.0 0.0 0.00 0.00 0.00 96 1027.3
20260509145443 45 101 0.0 0.0 0.00 0.00 0.00 96 1027.3
20260509144943 45 101 0.0 0.0 0.00 0.00 0.00 96 1027.0
20260509144443 45 101 0.0 0.0 0.00 0.00 0.00 96 1027.0
20260509143943 45 101 0.0 0.0 0.00 0.00 0.00 96 1026.9
20260509143443 45 101 0.0 0.0 0.00 0.00 0.00 96 1027.1
20260509142943 45 101 0.0 0.0 0.00 0.00 0.00 96 1027.0
20260509142443 45 101 0.0 0.0 0.00 0.00 0.00 96 1027.0
20260509141943 46 101 0.0 0.0 0.00 0.00 0.00 96 1026.9
20260509141443 46 101 0.0 0.0 0.00 0.00 0.00 96 1026.9
20260509140944 46 101 0.0 0.0 0.00 0.00 0.00 96 1027.0
20260509140443 46 101 0.0 0.0 0.00 0.00 0.00 96 1027.0
20260509135943 46 101 0.0 0.0 0.00 0.00 0.00 96 1027.0
20260509135443 46 101 0.0 0.0 0.00 0.00 0.00 96 1027.0
20260509134943 46 101 0.0 0.0 0.00 0.00 0.00 96 1027.0
20260509134443 46 101 0.0 0.0 0.00 0.00 0.00 96 1027.0
20260509133943 46 101 0.0 0.0 0.00 0.00 0.00 96 1027.1
20260509133443 46 101 0.0 0.0 0.00 0.00 0.00 96 1027.1
20260509132943 46 101 0.0 0.0 0.00 0.00 0.00 96 1027.1
20260509132443 46 101 0.0 0.0 0.00 0.00 0.00 96 1027.1
20260509131943 46 101 0.0 0.0 0.00 0.00 0.00 95 1027.1
20260509131443 46 101 0.0 0.0 0.00 0.00 0.00 95 1027.0
20260509130943 47 101 0.0 0.0 0.00 0.00 0.00 95 1027.0
20260509130444 47 101 0.0 0.0 0.00 0.00 0.00 95 1027.0
20260509125943 47 101 0.0 0.0 0.00 0.00 0.00 95 1027.0
20260509125444 47 101 0.0 0.0 0.00 0.00 0.00 95 1026.9
20260509124944 47 101 0.0 0.0 0.00 0.00 0.00 95 1026.9
20260509124444 47 101 0.0 0.0 0.00 0.00 0.00 95 1027.0
20260509123944 47 101 0.0 0.0 0.00 0.00 0.00 95 1027.0
20260509123444 47 101 0.0 0.0 0.00 0.00 0.00 95 1027.0
20260509122944 47 101 0.0 0.0 0.00 0.00 0.00 95 1027.0
20260509122444 48 101 0.0 0.0 0.00 0.00 0.00 95 1026.9
20260509121944 48 101 0.0 0.0 0.00 0.00 0.00 95 1027.1
20260509121444 48 101 0.0 0.0 0.00 0.00 0.00 95 1027.1
20260509120944 48 101 0.0 0.0 0.00 0.00 0.00 95 1027.0
20260509120444 48 101 0.0 0.0 0.00 0.00 0.00 95 1027.1
20260509115944 48 101 0.0 0.0 0.00 0.00 0.00 95 1027.1
20260509115444 48 101 0.0 0.0 0.00 0.00 0.00 95 1027.1
20260509114944 49 101 0.0 0.0 0.00 0.00 0.00 94 1027.1
20260509114444 49 101 0.0 0.0 0.00 0.00 0.00 94 1027.1
20260509113944 49 101 0.0 0.0 0.00 0.00 0.00 94 1027.1
20260509113444 49 101 0.0 0.0 0.00 0.00 0.00 94 1027.0
20260509112944 49 101 0.0 0.0 0.00 0.00 0.00 94 1027.0
20260509112444 49 101 0.0 0.0 0.00 0.00 0.00 94 1026.9
20260509111944 49 101 0.0 0.0 0.00 0.00 0.00 94 1027.0
20260509111444 49 101 0.0 0.0 0.00 0.00 0.00 94 1027.0
20260509110944 49 101 0.0 0.0 0.00 0.00 0.00 93 1026.9
20260509110444 50 101 0.0 0.0 0.00 0.00 0.00 93 1026.9
20260509105944 50 101 1.0 1.0 0.00 0.00 0.00 93 1026.9
20260509105444 50 101 1.0 2.0 0.00 0.00 0.00 93 1026.9
20260509104944 50 101 0.0 1.0 0.00 0.00 0.00 93 1026.9
20260509104444 50 101 0.0 0.0 0.00 0.00 0.00 93 1026.9
20260509103944 50 101 0.0 0.0 0.00 0.00 0.00 93 1026.9
20260509103444 50 101 0.0 0.0 0.00 0.00 0.00 92 1026.8
20260509102944 51 101 0.0 0.0 0.00 0.00 0.00 92 1026.8
20260509102444 51 101 0.0 1.0 0.00 0.00 0.00 92 1026.8
20260509101944 51 101 0.0 1.0 0.00 0.00 0.00 92 1026.8
20260509101444 51 101 0.0 0.0 0.00 0.00 0.00 92 1026.8
20260509100944 51 101 0.0 0.0 0.00 0.00 0.00 92 1026.7
20260509100444 51 101 0.0 0.0 0.00 0.00 0.00 91 1026.7
20260509095944 52 101 0.0 0.0 0.00 0.00 0.00 91 1026.5
20260509095444 52 101 0.0 0.0 0.00 0.00 0.00 91 1026.5
20260509094944 52 101 0.0 0.0 0.00 0.00 0.00 91 1026.5
20260509094444 52 101 0.0 0.0 0.00 0.00 0.00 91 1026.4
20260509093944 52 101 0.0 0.0 0.00 0.00 0.00 91 1026.4
20260509093444 52 101 0.0 0.0 0.00 0.00 0.00 91 1026.4
20260509092944 53 101 0.0 0.0 0.00 0.00 0.00 90 1026.4
20260509092444 53 101 0.0 0.0 0.00 0.00 0.00 89 1026.3
20260509091944 53 101 0.0 1.0 0.00 0.00 0.00 90 1026.3
20260509091444 53 101 0.0 0.0 0.00 0.00 0.00 89 1026.1
20260509090944 53 101 0.0 0.0 0.00 0.00 0.00 89 1026.0
20260509090444 54 101 0.0 0.0 0.00 0.00 0.00 89 1025.9
20260509085944 54 101 0.0 0.0 0.00 0.00 0.00 88 1025.7
20260509085444 54 101 0.0 0.0 0.00 0.00 0.00 88 1025.8
20260509084944 54 101 0.0 0.0 0.00 0.00 0.00 87 1025.6
20260509084444 55 101 0.0 1.0 0.00 0.00 0.00 86 1025.7
20260509083944 55 101 0.0 1.0 0.00 0.00 0.00 87 1025.5
20260509083444 55 101 0.0 0.0 0.00 0.00 0.00 87 1025.4
20260509082944 55 101 0.0 0.0 0.00 0.00 0.00 86 1025.3
20260509082444 56 101 0.0 0.0 0.00 0.00 0.00 86 1025.3
20260509081944 56 101 0.0 0.0 0.00 0.00 0.00 86 1025.1
20260509081444 56 101 0.0 0.0 0.00 0.00 0.00 85 1025.1
20260509080944 56 101 0.0 0.0 0.00 0.00 0.00 85 1025.0
20260509080444 57 101 0.0 0.0 0.00 0.00 0.00 85 1024.8
20260509075944 57 101 0.0 0.0 0.00 0.00 0.00 84 1024.8
20260509075444 57 101 0.0 0.0 0.00 0.00 0.00 82 1024.7
20260509074944 57 101 0.0 0.0 0.00 0.00 0.00 81 1024.8
20260509074444 58 101 0.0 0.0 0.00 0.00 0.00 81 1024.6
20260509073944 58 101 0.0 1.0 0.00 0.00 0.00 81 1024.6
20260509073444 59 101 0.0 0.0 0.00 0.00 0.00 79 1024.5
20260509072944 59 101 0.0 0.0 0.00 0.00 0.00 79 1024.4
20260509072444 59 101 1.0 1.0 0.00 0.00 0.00 77 1024.5
20260509071944 60 101 0.0 1.0 0.00 0.00 0.00 77 1024.3
20260509071444 60 101 0.0 2.0 0.00 0.00 0.00 75 1024.3
20260509070944 61 101 1.0 1.0 0.00 0.00 0.00 74 1024.3
20260509070444 61 101 1.0 3.0 0.00 0.00 0.00 74 1024.2
20260509065944 62 100 0.0 7.0 0.00 0.00 0.00 73 1024.0
20260509065444 63 115 0.0 0.0 0.00 0.00 0.00 72 1024.0
20260509064944 63 115 1.0 1.0 0.00 0.00 0.00 72 1024.0
20260509064444 64 115 1.0 2.0 0.00 0.00 0.00 71 1023.9
20260509063944 65 115 1.0 2.0 0.00 0.00 0.00 68 1023.9
20260509063444 66 115 1.0 2.0 0.00 0.00 0.00 66 1023.8
20260509062944 67 115 1.0 2.0 0.00 0.00 0.00 64 1023.7
20260509062444 67 115 1.0 2.0 0.00 0.00 0.00 62 1023.7
20260509061944 68 115 0.0 2.0 0.00 0.00 0.00 58 1023.6
20260509061444 68 116 0.0 0.0 0.00 0.00 0.00 58 1023.5
20260509060944 68 119 0.0 0.0 0.00 0.00 0.00 60 1023.5
20260509060444 68 119 0.0 0.0 0.00 0.00 0.00 59 1023.4
20260509055944 68 119 0.0 0.0 0.00 0.00 0.00 58 1023.3
20260509055444 69 119 0.0 2.0 0.00 0.00 0.00 57 1023.4
20260509054944 69 119 0.0 0.0 0.00 0.00 0.00 56 1023.2
20260509054444 69 119 1.0 2.0 0.00 0.00 0.00 57 1023.3
20260509053945 69 119 1.0 3.0 0.00 0.00 0.00 55 1023.3
20260509053444 69 119 1.0 3.0 0.00 0.00 0.00 55 1023.2
20260509052944 69 119 1.0 2.0 0.00 0.00 0.00 55 1023.1
20260509052444 69 113 2.0 3.0 0.00 0.00 0.00 52 1023.2
20260509051944 69 113 3.0 4.0 0.00 0.00 0.00 52 1023.2
20260509051444 70 126 3.0 4.0 0.00 0.00 0.00 54 1023.1
20260509050944 70 126 2.0 5.0 0.00 0.00 0.00 54 1023.0
20260509050444 70 149 2.0 6.0 0.00 0.00 0.00 53 1023.1
20260509045944 71 157 1.0 4.0 0.00 0.00 0.00 52 1023.2
20260509045444 71 163 2.0 4.0 0.00 0.00 0.00 51 1023.1
20260509044944 71 160 1.0 4.0 0.00 0.00 0.00 52 1023.1
20260509044444 72 173 1.0 3.0 0.00 0.00 0.00 49 1023.2
20260509043944 73 173 1.0 3.0 0.00 0.00 0.00 49 1023.2
20260509043444 73 173 2.0 5.0 0.00 0.00 0.00 50 1023.2
20260509042944 73 157 2.0 4.0 0.00 0.00 0.00 49 1023.3
20260509042444 73 160 1.0 4.0 0.00 0.00 0.00 52 1023.4
20260509041944 72 161 1.0 5.0 0.00 0.00 0.00 51 1023.3
20260509041444 72 313 2.0 2.0 0.00 0.00 0.00 51 1023.3
20260509040944 72 309 3.0 7.0 0.00 0.00 0.00 49 1023.3
20260509040444 72 260 1.0 7.0 0.00 0.00 0.00 49 1023.4
20260509035944 72 214 2.0 2.0 0.00 0.00 0.00 49 1023.4
20260509035444 72 246 2.0 4.0 0.00 0.00 0.00 49 1023.5
20260509034944 72 245 2.0 3.0 0.00 0.00 0.00 51 1023.5
20260509034444 72 238 2.0 6.0 0.00 0.00 0.00 49 1023.5
20260509033944 72 220 2.0 3.0 0.00 0.00 0.00 50 1023.5